Location: Bégole
(43.1574°N, 0.3291°E)
Time: 02:45:40
(UTC+00:00)

deb Delta 89 - Pass Details

Date: 27 February 2024
Orbit: 714 x 2021 km, 97.5° (Epoch: 13 April)

Event Time Altitude Azimuth Distance (km) Brightness Sun altitude
Rises 04:19:17 0° 7° (N) 5,468 ? -26.2°
Reaches altitude 10° 04:23:01 10° 359° (N) 4,484 ? -25.5°
Maximum altitude 04:32:17 32° 304° (NW) 2,984 ? -23.8°
Enters shadow 04:34:20 30° 286° (WNW) 3,027 ? -23.5°
